Location: *
(51.0333°S, 178.4667°E)
Time: 08:02:19
(UTC+00:00)

Cosmos 2151 Rocket - Pass Details

Date: 15 November 2019
Orbit: 617 x 643 km, 82.5° (Epoch: 13 December)

Event Time Altitude Azimuth Distance (km) Brightness Sun altitude
Exits shadow 11:26:50 52° 15° (NNE) 786 3.6 -20.3°
Maximum altitude 11:27:50 74° 83° (E) 661 3.6 -20.3°
Drops below altitude 10° 11:32:18 10° 166° (SSE) 2,025 7.2 -20.4°
Sets 11:34:34 0° 168° (SSE) 2,941 8.4 -20.4°
